East Davis - northern half: Past 24 Hour Conditions

 

Quaqtaq Airport

02:00 PM EDT 24 April 2014
This table is a summary of hourly weather conditions for the past 24 hours.
Date / Time
(EDT)
Wind(knots) Conditions Visibility(km) Pressure(kPa) Air tempC) Relative humidity(%) Dew pointC) Wind Chill
24 April 2014
14:00 NE 7 Light Snow 24 102.8 -7 79 -10 -13
13:00 ENE 10 Light Snow 24 102.9 -7 78 -10 -14
12:00 NE 10 Light Snow 24 102.9 -8 78 -11 -14
11:00 NE 11 Light Snow 24 102.8 -8 78 -11 -15
10:00 NE 10 Light Snow 24 102.8 -8 82 -11 -15
9:00 NNE 8 Light Snow 10 102.8 -9 90 -10 -15
8:00 NE 10 Light Snow 5 102.8 -9 89 -10 -16
7:00 NNE 11 N/A N/A 102.7 -10 88 -12 -18
6:00 NNE 12 N/A N/A 102.6 -10 89 -11 -18
5:00 NNE 9 N/A N/A 102.6 -10 91 -11 -17
4:00 NNE 9 N/A N/A 102.6 -10 90 -11 -17
3:00 NNE 8 N/A N/A 102.6 -10 85 -12 -16
2:00 NNE 8 N/A N/A 102.5 -10 82 -12 -17
1:00 N 6 N/A N/A 102.5 -10 80 -13 -16
0:00 NE 8 N/A N/A 102.5 -10 78 -13 -16
23 April 2014
23:00 NE 6 N/A N/A 102.5 -10 78 -13 -15
22:00 NNE 4 N/A N/A 102.5 -10 85 -12 -14
21:00 NNE 9 N/A N/A 102.5 -9 80 -12 -16
20:00 ENE 7 N/A N/A 102.5 -9 75 -13 -16
19:00 NNE 8 N/A N/A 102.4 -9 77 -12 -15
18:00 NNE 10 N/A N/A 102.4 -9 81 -12 -16
17:00 NNE 8 Light Snow 6 102.4 -8 80 -11 -15
16:00 N 6 Light Snow 5 102.4 -9 79 -12 -14
15:00 N 9 Light Snow 8 102.4 -9 79 -12 -16
14:00 N 7 Light Snow 8 102.4 -9 76 -12 -15
 
Map of Arctic - Eastern Arctic marine weather areas Baker Lake Airport Chesterfield Inlet Airport Coral Harbour Airport Gjoa Haven Airport Kugaaruk Airport Rankin Inlet Airport Shepherd Bay Airport Whale Cove Airport Arctic Bay Brevoort Island Qikiqtarjuaq Airport Cape Dorset Airport Cape Dyer Cape Hooper Clyde Airport Grise Fiord Airport Hall Beach Airport Igloolik Airport Iqaluit Airport Longstaff Bluff Pangnirtung Airport Pond Inlet Airport Repulse Bay Airport Resolute Airport Resolution Island Rowley Island Airport Taloyoak Airport Wager Bay Akulivik Airport Ivujivik Airport Puvirnituq Airport Kangiqsujuaq Airport Kangirsuk Airport Quaqtaq Airport Tasiujaq Airport Cape Kakkiviak Cape Kiglapait Nain Airport Saglek Cape Mercy Kimmirut Airport Aupaluk Airport Salluit Airport Kangiqsualujjuaq Airport Fort Ross
Legend: buoyBuoy land stationLand Station